FW1003 Weather Reports


Display with metric or nautical units.
time (UTC)temp
F
wind
direction
speed
MPH
gust
MPH
rain 1hr
in
rain 24hr
in
rain mn
in
humidity
%
barometer
mb
20260904121519 93 360 2.0 7.0 0.00 0.00 0.00 53 1011.2
20260904120017 93 102 2.0 8.0 0.00 0.00 0.00 53 1011.0
20260904114532 93 209 2.0 6.0 0.00 0.00 0.00 51 1011.0
20260904113012 93 144 2.0 7.0 0.00 0.00 0.00 52 1011.1
20260904111510 93 360 1.0 6.0 0.00 0.00 0.00 53 1011.0
20260904110021 93 173 2.0 7.0 0.00 0.00 0.00 52 1011.1
20260904104509 92 184 1.0 7.0 0.00 0.00 0.00 53 1011.1
20260904103010 93 166 3.0 9.0 0.00 0.00 0.00 52 1011.2
20260904101514 92 94 1.0 6.0 0.00 0.00 0.00 52 1011.4
20260904100006 93 155 3.0 8.0 0.00 0.00 0.00 53 1011.4
20260904094505 92 137 2.0 10.0 0.00 0.00 0.00 54 1011.4
20260904093005 92 142 3.0 7.0 0.00 0.00 0.00 53 1011.6
20260904091502 92 227 2.0 7.0 0.00 0.00 0.00 52 1011.6
20260904090058 92 216 3.0 7.0 0.00 0.00 0.00 52 1011.7
20260904084558 91 165 3.0 7.0 0.00 0.00 0.00 54 1011.6
20260904083057 90 173 2.0 8.0 0.00 0.00 0.00 54 1011.5
20260904081552 90 167 2.0 9.0 0.00 0.00 0.00 55 1011.8
20260904080051 89 118 3.0 8.0 0.00 0.00 0.00 56 1011.9
20260904074605 90 181 2.0 7.0 0.00 0.00 0.00 57 1011.9
20260904073048 90 360 3.0 8.0 0.00 0.00 0.00 54 1011.9
20260904071544 90 328 2.0 6.0 0.00 0.00 0.00 56 1011.9
20260904070041 89 155 3.0 9.0 0.00 0.00 0.00 57 1011.9
20260904064539 88 211 3.0 7.0 0.00 0.00 0.00 58 1011.8
20260904063049 88 220 1.0 7.0 0.00 0.00 0.00 59 1011.6
20260904061535 88 177 3.0 6.0 0.00 0.00 0.00 59 1011.6
20260904060039 87 195 3.0 7.0 0.00 0.00 0.00 61 1011.3
20260904054527 87 162 2.0 7.0 0.00 0.00 0.00 62 1011.4
20260904053030 86 136 1.0 6.0 0.00 0.00 0.00 64 1011.2
20260904051517 84 125 1.0 6.0 0.00 0.00 0.00 66 1011.2
20260904050013 83 121 2.0 4.0 0.00 0.00 0.00 69 1011.3
20260904044519 81 128 1.0 4.0 0.00 0.00 0.00 74 1011.2
20260904043006 78 302 0.0 0.0 0.00 0.00 0.00 76 1011.2
20260904041500 76 301 0.0 0.0 0.00 0.00 0.00 76 1011.2
20260904040058 76 301 0.0 0.0 0.00 0.00 0.00 76 1011.1
20260904034604 76 301 0.0 0.0 0.00 0.00 0.00 76 1011.0
20260904033052 76 301 0.0 0.0 0.00 0.00 0.00 76 1010.6
20260904031547 75 301 0.0 0.0 0.00 0.00 0.00 76 1010.6
20260904030046 75 301 0.0 0.0 0.00 0.00 0.00 76 1010.7
20260904024546 75 301 0.0 0.0 0.00 0.00 0.00 76 1010.7
20260904023045 75 301 0.0 0.0 0.00 0.00 0.00 75 1010.7
20260904021548 75 301 0.0 0.0 0.00 0.00 0.00 74 1010.6
20260904020043 75 301 0.0 0.0 0.00 0.00 0.00 74 1010.5
20260904014545 75 301 0.0 0.0 0.00 0.00 0.00 74 1010.5
20260904013040 76 301 0.0 0.0 0.00 0.00 0.00 74 1010.5
20260904011542 76 301 0.0 0.0 0.00 0.00 0.00 73 1010.5
20260904010050 76 301 0.0 0.0 0.00 0.00 0.00 74 1010.5
20260904004545 77 301 0.0 0.0 0.00 0.00 0.00 74 1010.5
20260904003034 77 301 0.0 0.0 0.00 0.00 0.00 74 1010.5
20260904001534 77 301 0.0 0.0 0.00 0.00 0.00 74 1010.6
20260904000035 77 301 0.0 2.0 0.00 0.00 0.00 74 1010.6
20260903234535 77 301 0.0 1.0 0.00 0.00 0.00 73 1010.5
20260903233032 78 301 0.0 0.0 0.00 0.00 0.00 72 1010.5
20260903231528 78 301 0.0 0.0 0.00 0.00 0.00 72 1010.6
20260903230027 78 301 0.0 0.0 0.00 0.00 0.00 71 1010.7
20260903224527 79 300 0.0 0.0 0.00 0.00 0.00 70 1010.8
20260903223029 79 301 0.0 0.0 0.00 0.00 0.00 70 1010.8
20260903221520 80 301 0.0 0.0 0.00 0.00 0.00 70 1010.9
20260903220021 80 301 0.0 1.0 0.00 0.00 0.00 70 1010.7
20260903214516 81 301 0.0 2.0 0.00 0.00 0.00 70 1010.8
20260903213018 81 301 0.0 1.0 0.00 0.00 0.00 70 1010.8
20260903211530 81 301 0.0 0.0 0.00 0.00 0.00 69 1011.0
20260903210011 81 301 0.0 2.0 0.00 0.00 0.00 69 1011.1
20260903204510 82 301 0.0 1.0 0.00 0.00 0.00 70 1011.1
20260903203009 81 301 0.0 1.0 0.00 0.00 0.00 70 1011.1
20260903201509 81 301 0.0 1.0 0.00 0.00 0.00 69 1011.0
20260903200008 82 301 0.0 0.0 0.00 0.00 0.00 69 1011.0
20260903194508 82 301 0.0 0.0 0.00 0.00 0.00 69 1011.0
20260903193008 82 301 0.0 2.0 0.00 0.00 0.00 69 1011.0
20260903191513 82 301 0.0 1.0 0.00 0.00 0.00 68 1010.9
20260903190006 82 301 0.0 0.0 0.00 0.00 0.00 68 1011.0
20260903184506 83 300 0.0 2.0 0.00 0.00 0.00 68 1010.9
20260903183006 83 300 0.0 0.0 0.00 0.00 0.00 67 1011.0
20260903181504 83 300 0.0 1.0 0.00 0.00 0.00 67 1011.0
20260903180005 84 300 0.0 0.0 0.00 0.00 0.00 67 1010.8
20260903174510 84 300 0.0 1.0 0.00 0.00 0.00 67 1010.7
20260903173010 84 300 0.0 0.0 0.00 0.00 0.00 66 1010.7
20260903171503 84 300 0.0 2.0 0.00 0.00 0.00 66 1010.6
20260903170001 85 300 0.0 2.0 0.00 0.00 0.00 66 1010.4
20260903164502 85 300 0.0 1.0 0.00 0.00 0.00 66 1010.3
20260903163105 85 300 0.0 2.0 0.00 0.00 0.00 65 1010.3
20260903161600 86 300 0.0 2.0 0.00 0.00 0.00 64 1010.1
20260903160059 86 340 0.0 2.0 0.00 0.00 0.00 64 1010.1
20260903154600 87 340 0.0 4.0 0.00 0.00 0.00 64 1010.1
20260903153058 87 44 0.0 4.0 0.00 0.00 0.00 63 1010.0
20260903151559 87 304 0.0 4.0 0.00 0.00 0.00 63 1010.1
20260903150112 88 355 1.0 5.0 0.00 0.00 0.00 62 1010.0
20260903144557 89 298 1.0 5.0 0.00 0.00 0.00 60 1010.0
20260903143055 89 351 1.0 4.0 0.00 0.00 0.00 57 1009.9
20260903141554 90 313 1.0 5.0 0.00 0.00 0.00 56 1009.9
20260903140054 91 83 1.0 5.0 0.00 0.00 0.00 55 1009.8
20260903134655 92 112 0.0 8.0 0.00 0.00 0.00 54 1009.8
20260903133055 92 131 0.0 3.0 0.00 0.00 0.00 54 1009.8
20260903131557 92 161 2.0 5.0 0.00 0.00 0.00 54 1009.8
20260903130108 93 34 1.0 8.0 0.00 0.00 0.00 54 1009.9
20260903124553 93 309 2.0 9.0 0.00 0.00 0.00 52 1009.8
20260903123050 93 90 1.0 6.0 0.00 0.00 0.00 54 1009.9